QPF
0.01 0.00 0.00 0.00 0.00 0.00 0.00 0.00 0.00 0.00 0.00 0.00 0.00 0.02 0.05 0.05 0.01 0.00 0.00 0.00 0.00 0.00 0.02 0.05 0.07 0.06 0.02 0.00 0.00 0.00 0.00 0.00 0.00 0.00 0.01 0.01 0.00 0.00 0.00 0.00 0.00 0.01 0.01
0.00 0.00 0.00 0.00 0.00 0.00 0.00 0.00 0.00 0.00 0.00 0.01 0.00 0.01 0.02 0.07 0.00 0.00 0.02 0.07 0.12 0.10 0.06 0.04 0.03 0.09 0.08 0.07 0.03 0.01 0.01 0.00 0.00 0.00 0.00 0.00 0.00 0.00 0.00 0.00 0.00 0.01 0.01
0.00 0.00 0.00 0.00 0.00 0.00 0.00 0.00 0.00 0.00 0.00 0.00 0.01 0.01 0.03 0.01 0.00 0.01 0.03 0.02 0.04 0.08 0.05 0.05 0.13 0.21 0.21 0.13 0.06 0.03 0.03 0.02 0.00 0.00 0.00 0.00 0.00 0.00 0.00 0.00 0.00 0.01 0.01
0.00 0.00 0.00 0.00 0.00 0.00 0.00 0.00 0.00 0.00 0.00 0.00 0.00 0.00 0.00 0.00 0.00 0.00 0.00 0.00 0.01 0.03 0.02 0.03 0.11 0.78 0.54 0.32 0.13 0.05 0.04 0.04 0.02 0.00 0.00 0.00 0.00 0.00 0.00 0.00 0.00 0.00 0.01
0.00 0.00 0.00 0.00 0.00 0.00 0.00 0.00 0.00 0.00 0.00 0.00 0.00 0.00 0.00 0.00 0.00 0.00 0.00 0.00 0.00 0.00 0.00 0.03 0.02 0.63 0.99 0.60 0.32 0.19 0.09 0.06 0.02 0.00 0.00 0.00 0.00 0.01 0.00 0.00 0.00 0.00 0.00
0.00 0.00 0.00 0.00 0.00 0.00 0.00 0.00 0.00 0.00 0.00 0.00 0.00 0.00 0.00 0.00 0.00 0.00 0.00 0.00 0.00 0.00 0.00 0.02 0.03 0.13 0.25 0.52 0.49 0.50 0.23 0.06 0.01 0.00 0.00 0.00 0.00 0.01 0.00 0.00 0.00 0.00 0.00
0.00 0.00 0.00 0.00 0.00 0.00 0.00 0.00 0.00 0.00 0.00 0.00 0.00 0.00 0.00 0.00 0.00 0.00 0.00 0.00 0.00 0.00 0.00 0.00 0.00 0.03 0.29 0.13 0.09 0.19 0.10 0.02 0.01 0.00 0.00 0.00 0.00 0.01 0.00 0.00 0.00 0.00 0.00
0.00 0.00 0.00 0.00 0.00 0.00 0.00 0.00 0.00 0.00 0.00 0.00 0.00 0.00 0.00 0.00 0.00 0.00 0.00 0.00 0.00 0.00 0.00 0.00 0.00 0.00 0.14 0.08 0.02 0.03 0.02 0.01 0.00 0.00 0.00 0.00 0.00 0.03 0.02 0.00 0.00 0.00 0.00
0.00 0.00 0.00 0.00 0.00 0.00 0.00 0.00 0.00 0.00 0.00 0.00 0.00 0.00 0.00 0.00 0.00 0.00 0.00 0.00 0.00 0.00 0.00 0.00 0.00 0.01 0.01 0.01 0.01 0.01 0.00 0.00 0.00 0.00 0.00 0.00 0.01 0.01 0.05 0.04 0.01 0.00 0.00
0.00 0.00 0.00 0.01 0.00 0.00 0.00 0.00 0.00 0.00 0.00 0.00 0.00 0.00 0.00 0.00 0.00 0.00 0.00 0.00 0.00 0.00 0.00 0.00 0.00 0.00 0.00 0.00 0.00 0.00 0.00 0.00 0.00 0.00 0.00 0.00 0.00 0.01 0.02 0.06 0.04 0.01 0.00
0.00 0.00 0.00 0.01 0.00 0.00 0.00 0.00 0.00 0.00 0.00 0.00 0.00 0.00 0.00 0.00 0.00 0.00 0.00 0.00 0.00 0.00 0.00 0.00 0.00 0.00 0.00 0.00 0.00 0.00 0.00 0.00 0.00 0.00 0.00 0.00 0.00 0.00 0.01 0.03 0.02 0.02 0.01
0.00 0.00 0.00 0.00 0.00 0.00 0.00 0.00 0.00 0.02 0.00 0.00 0.00 0.00 0.00 0.00 0.00 0.00 0.00 0.00 0.00 0.00 0.00 0.00 0.00 0.00 0.00 0.00 0.00 0.00 0.00 0.00 0.00 0.00 0.00 0.00 0.00 0.00 0.00 0.02 0.01 0.01 0.01
0.00 0.00 0.00 0.00 0.00 0.00 0.00 0.00 0.00 0.00 0.00 0.00 0.00 0.00 0.00 0.00 0.00 0.00 0.00 0.00 0.00 0.00 0.00 0.00 0.00 0.00 0.00 0.00 0.00 0.00 0.00 0.00 0.00 0.00 0.00 0.00 0.01 0.00 0.01 0.02 0.02 0.01 0.00
0.00 0.00 0.00 0.00 0.00 0.00 0.00 0.00 0.00 0.00 0.00 0.00 0.00 0.00 0.00 0.00 0.00 0.00 0.00 0.00 0.00 0.00 0.00 0.00 0.00 0.00 0.00 0.00 0.00 0.01 0.00 0.00 0.00 0.00 0.00 0.00 0.00 0.00 0.00 0.00 0.01 0.04 0.02
0.00 0.00 0.00 0.00 0.00 0.00 0.00 0.00 0.00 0.00 0.00 0.00 0.00 0.00 0.00 0.00 0.00 0.00 0.00 0.00 0.00 0.00 0.00 0.00 0.00 0.00 0.00 0.00 0.00 0.00 0.00 0.00 0.00 0.00 0.00 0.00 0.00 0.00 0.00 0.00 0.00 0.02 0.04
0.00 0.00 0.00 0.00 0.00 0.00 0.00 0.00 0.00 0.00 0.00 0.00 0.00 0.00 0.00 0.00 0.00 0.00 0.00 0.00 0.00 0.00 0.00 0.00 0.00 0.00 0.00 0.00 0.00 0.00 0.00 0.00 0.00 0.00 0.00 0.00 0.00 0.00 0.00 0.00 0.00 0.02 0.06
0.00 0.00 0.00 0.00 0.00 0.00 0.00 0.00 0.00 0.00 0.00 0.00 0.00 0.00 0.00 0.00 0.00 0.00 0.00 0.00 0.00 0.00 0.00 0.00 0.00 0.00 0.00 0.00 0.00 0.00 0.00 0.00 0.00 0.00 0.00 0.00 0.00 0.00 0.00 0.00 0.00 0.00 0.01
0.00 0.00 0.00 0.00 0.00 0.00 0.00 0.00 0.00 0.00 0.00 0.00 0.00 0.00 0.00 0.00 0.00 0.00 0.00 0.00 0.00 0.00 0.00 0.00 0.00 0.00 0.00 0.00 0.00 0.00 0.00 0.00 0.00 0.00 0.00 0.01 0.01 0.00 0.00 0.00 0.00 0.00 0.00
0.00 0.00 0.00 0.00 0.00 0.00 0.00 0.00 0.00 0.00 0.00 0.00 0.00 0.00 0.00 0.00 0.00 0.00 0.00 0.00 0.00 0.00 0.00 0.00 0.00 0.00 0.00 0.00 0.00 0.00 0.00 0.00 0.00 0.00 0.00 0.00 0.01 0.00 0.02 0.01 0.00 0.00 0.00
0.00 0.00 0.00 0.00 0.00 0.00 0.00 0.00 0.00 0.00 0.00 0.00 0.00 0.00 0.00 0.00 0.00 0.00 0.00 0.00 0.00 0.00 0.00 0.00 0.00 0.00 0.00 0.00 0.00 0.00 0.00 0.00 0.00 0.00 0.00 0.00 0.01 0.01 0.01 0.01 0.02 0.01 0.00
0.00 0.00 0.00 0.00 0.00 0.00 0.00 0.00 0.00 0.00 0.00 0.00 0.00 0.00 0.00 0.00 0.00 0.00 0.00 0.00 0.00 0.00 0.00 0.00 0.00 0.00 0.00 0.00 0.00 0.00 0.00 0.00 0.00 0.00 0.00 0.00 0.00 0.01 0.02 0.02 0.02 0.01 0.00
0.00 0.00 0.00 0.00 0.00 0.00 0.00 0.00 0.00 0.00 0.00 0.00 0.00 0.00 0.00 0.00 0.00 0.00 0.00 0.00 0.00 0.00 0.00 0.00 0.00 0.00 0.00 0.00 0.00 0.00 0.00 0.00 0.00 0.00 0.00 0.00 0.00 0.01 0.05 0.09 0.08 0.06 0.03
0.00 0.00 0.00 0.00 0.00 0.00 0.00 0.00 0.00 0.00 0.00 0.00 0.00 0.00 0.00 0.00 0.00 0.00 0.00 0.00 0.00 0.00 0.00 0.00 0.00 0.00 0.00 0.00 0.00 0.00 0.00 0.00 0.00 0.00 0.00 0.00 0.00 0.00 0.00 0.01 0.07 0.11 0.08
0.00 0.00 0.00 0.00 0.00 0.00 0.00 0.00 0.00 0.00 0.00 0.00 0.00 0.00 0.00 0.00 0.00 0.00 0.00 0.00 0.00 0.00 0.00 0.00 0.00 0.00 0.00 0.00 0.00 0.00 0.00 0.00 0.00 0.00 0.00 0.00 0.00 0.00 0.00 0.00 0.00 0.01 0.03
0.00 0.00 0.00 0.00 0.00 0.00 0.00 0.00 0.00 0.00 0.00 0.00 0.00 0.00 0.00 0.00 0.00 0.00 0.00 0.00 0.00 0.00 0.00 0.00 0.00 0.00 0.00 0.00 0.00 0.00 0.00 0.00 0.00 0.00 0.00 0.00 0.00 0.00 0.00 0.00 0.00 0.00 0.00
0.00 0.00 0.00 0.00 0.00 0.00 0.00 0.00 0.00 0.00 0.00 0.00 0.00 0.00 0.00 0.00 0.00 0.00 0.00 0.00 0.00 0.00 0.00 0.00 0.00 0.00 0.00 0.00 0.00 0.00 0.00 0.00 0.00 0.00 0.00 0.00 0.00 0.00 0.00 0.00 0.00 0.00 0.00
MSLP
1015.38 1015.22 1015.46 1015.75 1015.68 1015.45 1015.38 1015.57 1015.19 1015.06 1015.21 1015.20 1015.50 1015.81 1016.32 1016.39 1016.26 1016.51 1016.85 1016.54 1017.20 1017.83 1018.61 1019.08 1019.52 1019.16 1018.84 1018.81 1018.73 1018.89 1018.94 1018.48 1018.55 1019.02 1019.17 1019.53 1019.53 1019.47 1019.27 1018.79 1018.95 1019.01 1019.36
1015.20 1015.56 1015.52 1015.69 1015.61 1015.55 1016.07 1015.97 1015.61 1015.31 1015.24 1015.30 1015.63 1015.87 1016.19 1016.69 1016.72 1016.85 1016.82 1016.58 1015.98 1017.41 1018.26 1018.86 1019.03 1019.11 1018.74 1018.73 1018.62 1018.97 1019.01 1018.76 1018.68 1018.85 1018.87 1019.03 1019.25 1019.06 1018.82 1018.61 1018.78 1019.08 1019.50
1015.17 1015.73 1015.56 1015.73 1015.95 1015.97 1016.01 1016.15 1015.73 1015.72 1015.76 1015.49 1015.95 1016.03 1016.08 1016.54 1016.57 1016.60 1016.74 1017.17 1016.70 1015.96 1016.63 1018.25 1018.18 1019.25 1019.01 1018.98 1018.92 1018.80 1019.01 1018.81 1018.86 1018.80 1018.73 1018.65 1018.61 1018.56 1018.60 1018.59 1018.46 1018.60 1019.15
1015.36 1015.77 1015.83 1015.91 1016.04 1016.05 1016.21 1015.89 1015.93 1016.07 1016.00 1015.93 1016.06 1016.34 1016.28 1016.30 1016.44 1016.51 1016.76 1017.22 1016.57 1016.34 1017.29 1017.69 1018.24 1018.54 1018.83 1019.69 1019.48 1018.97 1018.98 1019.06 1019.03 1018.81 1018.70 1018.65 1018.54 1018.51 1018.75 1018.74 1018.76 1018.92 1019.12
1015.51 1015.67 1015.79 1016.06 1016.42 1016.24 1016.31 1016.12 1016.20 1016.17 1016.20 1016.14 1016.24 1016.25 1016.58 1016.52 1016.58 1016.92 1017.14 1017.45 1017.04 1017.07 1017.71 1018.11 1018.45 1017.98 1017.28 1018.93 1019.40 1019.47 1019.18 1019.01 1018.82 1018.73 1018.58 1018.50 1018.34 1018.38 1018.64 1018.95 1019.07 1019.14 1019.31
1015.78 1015.73 1015.98 1016.21 1016.22 1016.27 1016.28 1016.17 1016.22 1016.27 1016.51 1016.47 1016.61 1016.46 1016.68 1016.63 1016.63 1016.95 1017.14 1017.17 1017.32 1017.57 1018.04 1018.05 1018.36 1017.85 1017.42 1018.01 1017.78 1019.24 1019.67 1018.92 1018.31 1018.30 1018.30 1018.08 1018.13 1018.12 1018.48 1019.07 1019.13 1019.21 1019.39
1015.57 1015.91 1016.06 1016.33 1016.26 1016.33 1016.14 1016.29 1016.31 1016.47 1016.54 1016.85 1016.86 1016.85 1016.92 1016.76 1016.97 1017.01 1017.24 1017.16 1017.30 1017.72 1017.94 1018.19 1017.99 1017.94 1018.26 1018.39 1018.28 1018.87 1018.45 1018.31 1018.16 1017.85 1017.85 1017.97 1018.13 1017.82 1018.28 1018.65 1018.98 1019.14 1019.34
1015.10 1015.52 1015.80 1015.95 1015.95 1016.14 1016.26 1016.31 1016.55 1016.61 1016.71 1016.97 1017.36 1017.35 1017.38 1017.34 1017.50 1017.54 1017.55 1017.43 1017.52 1017.90 1017.96 1018.06 1018.14 1017.99 1017.79 1018.00 1017.85 1018.70 1018.20 1017.96 1017.59 1017.76 1017.74 1017.81 1017.79 1017.50 1017.96 1018.35 1018.57 1018.93 1019.08
1014.52 1015.04 1015.56 1015.64 1015.80 1015.97 1016.23 1016.42 1016.50 1016.70 1016.92 1017.01 1017.33 1017.64 1017.71 1017.75 1017.80 1017.88 1018.02 1017.92 1018.02 1018.03 1017.90 1017.87 1017.90 1018.14 1018.07 1017.89 1017.99 1018.11 1018.08 1017.91 1017.89 1017.60 1017.76 1017.73 1017.25 1017.14 1017.53 1017.93 1018.32 1018.63 1018.82
1014.60 1015.09 1015.77 1015.98 1015.87 1015.92 1016.11 1016.31 1016.48 1016.81 1017.18 1017.32 1017.39 1017.72 1017.84 1017.80 1017.93 1018.15 1018.19 1018.20 1018.20 1018.30 1018.06 1017.83 1017.73 1017.57 1017.72 1017.82 1018.04 1018.10 1018.03 1017.96 1018.07 1017.94 1017.72 1017.42 1017.17 1016.97 1017.24 1017.69 1018.23 1018.31 1018.52
1014.48 1014.78 1015.09 1015.63 1015.79 1015.84 1015.92 1016.06 1016.19 1016.56 1016.97 1017.25 1017.24 1017.52 1017.73 1017.80 1017.98 1018.25 1018.25 1018.35 1018.42 1018.47 1018.40 1018.20 1018.01 1017.74 1017.77 1017.84 1017.93 1017.92 1017.97 1018.05 1018.05 1017.91 1017.73 1017.21 1017.24 1017.04 1017.06 1017.37 1017.75 1018.05 1018.30
1014.79 1015.01 1015.28 1015.49 1015.78 1015.70 1015.79 1016.21 1016.18 1016.54 1016.76 1016.89 1016.93 1017.15 1017.32 1017.44 1017.59 1017.93 1018.04 1018.17 1018.25 1018.24 1018.25 1018.19 1018.17 1018.25 1018.25 1018.19 1018.11 1017.88 1017.68 1017.69 1017.76 1017.71 1017.57 1017.16 1017.11 1016.93 1017.08 1017.15 1017.32 1017.63 1017.84
1014.92 1015.07 1015.46 1015.91 1015.89 1016.00 1015.98 1016.05 1016.34 1016.41 1016.73 1016.93 1017.02 1017.30 1017.44 1017.55 1017.57 1017.85 1018.17 1018.27 1018.59 1018.77 1019.05 1019.07 1018.88 1018.65 1018.58 1018.49 1018.37 1018.05 1017.87 1017.67 1017.41 1017.24 1017.17 1016.85 1016.75 1016.77 1016.79 1017.01 1017.16 1017.01 1017.51
1014.87 1015.14 1015.46 1015.70 1015.91 1016.03 1016.17 1016.25 1016.32 1016.41 1016.59 1016.89 1016.89 1017.17 1017.45 1017.72 1017.81 1018.02 1018.17 1018.30 1018.36 1018.31 1018.35 1018.41 1019.03 1019.20 1018.97 1018.58 1018.53 1018.32 1018.05 1017.57 1017.21 1017.16 1016.84 1016.61 1016.77 1016.97 1016.74 1016.97 1016.84 1016.68 1016.96
1014.81 1015.33 1015.56 1015.75 1016.06 1015.94 1016.29 1016.44 1016.56 1016.85 1016.96 1017.03 1017.01 1017.01 1017.31 1017.62 1017.75 1017.83 1017.98 1018.21 1018.38 1018.42 1018.49 1018.67 1018.66 1018.62 1018.79 1018.90 1018.74 1018.42 1018.23 1017.79 1017.13 1016.82 1016.85 1016.97 1016.92 1016.85 1016.98 1016.88 1016.55 1016.33 1016.67
1014.45 1015.05 1015.32 1015.61 1015.72 1015.85 1016.32 1016.34 1016.62 1016.87 1016.84 1016.97 1017.13 1017.20 1017.36 1017.69 1017.95 1017.95 1018.05 1018.12 1018.32 1018.43 1018.54 1018.64 1018.67 1018.60 1018.41 1018.24 1018.09 1018.35 1018.07 1017.84 1017.36 1017.18 1017.12 1016.78 1016.79 1016.83 1016.68 1016.60 1016.53 1016.09 1016.04
1014.30 1014.80 1015.21 1015.59 1015.93 1016.15 1016.46 1016.46 1016.63 1016.73 1016.77 1017.07 1017.15 1017.17 1017.37 1017.53 1017.65 1017.85 1017.99 1018.29 1018.39 1018.41 1018.58 1018.83 1018.85 1018.71 1018.64 1018.29 1018.16 1017.70 1017.44 1017.18 1017.14 1017.13 1017.01 1016.79 1016.42 1016.33 1016.25 1016.34 1016.29 1015.96 1015.77
1014.07 1014.74 1015.00 1015.32 1015.92 1016.22 1016.49 1016.41 1016.56 1016.65 1016.66 1016.89 1017.03 1017.15 1017.26 1017.44 1017.56 1017.70 1017.93 1018.05 1017.83 1018.03 1018.28 1018.52 1018.84 1018.82 1018.78 1018.53 1018.12 1017.73 1017.57 1017.50 1017.19 1016.77 1016.52 1016.11 1015.84 1015.78 1015.43 1015.60 1015.54 1015.43 1015.25
1013.84 1014.49 1014.96 1015.34 1015.93 1016.29 1016.35 1016.51 1016.61 1016.66 1016.68 1016.75 1016.84 1016.96 1016.99 1017.07 1017.14 1017.45 1017.77 1017.82 1017.72 1017.97 1018.06 1018.19 1018.34 1018.45 1018.55 1018.41 1018.09 1017.65 1017.41 1017.21 1016.92 1016.31 1016.13 1015.73 1015.50 1015.22 1014.98 1014.94 1014.94 1015.00 1014.74
1014.05 1014.50 1015.01 1015.48 1015.76 1016.13 1016.35 1016.52 1016.74 1016.81 1016.56 1016.57 1016.65 1016.58 1016.54 1016.82 1016.95 1017.17 1017.55 1017.50 1017.49 1017.81 1017.93 1017.88 1017.95 1018.01 1018.05 1017.94 1017.79 1017.56 1017.27 1016.78 1016.39 1016.14 1015.70 1015.04 1014.80 1014.74 1014.42 1014.27 1014.03 1013.96 1013.75
1014.60 1014.91 1015.28 1015.74 1016.00 1016.11 1016.41 1016.81 1016.91 1017.03 1016.65 1016.56 1016.36 1016.20 1016.39 1016.56 1016.68 1016.84 1017.17 1017.37 1017.37 1017.54 1017.63 1017.69 1017.77 1017.85 1017.72 1017.49 1017.73 1017.50 1017.09 1016.59 1016.37 1015.74 1015.22 1014.84 1014.60 1014.25 1013.86 1013.52 1013.19 1013.18 1013.17
1014.94 1015.20 1015.39 1015.53 1015.65 1015.85 1016.01 1016.06 1016.16 1016.21 1016.12 1015.95 1015.75 1015.80 1015.91 1016.07 1016.18 1016.41 1016.63 1016.97 1016.99 1017.10 1017.19 1017.39 1017.65 1017.92 1017.84 1017.33 1017.67 1017.67 1017.26 1016.59 1016.23 1015.55 1014.98 1014.48 1014.00 1013.82 1013.47 1013.02 1012.67 1012.65 1012.67
1014.72 1014.84 1015.03 1015.08 1015.16 1015.33 1015.34 1015.49 1015.67 1015.76 1015.78 1015.81 1015.66 1015.70 1015.65 1015.37 1015.50 1015.73 1016.10 1016.48 1016.71 1016.87 1017.09 1017.26 1017.41 1017.70 1018.09 1017.72 1017.34 1017.68 1017.29 1016.95 1016.40 1015.68 1015.11 1014.60 1014.11 1013.75 1013.37 1012.77 1012.45 1012.53 1012.82
1014.16 1014.36 1014.39 1014.47 1014.54 1014.59 1014.83 1015.11 1015.37 1015.38 1015.47 1015.10 1014.95 1014.88 1015.07 1014.93 1015.06 1015.26 1015.50 1015.97 1016.38 1016.69 1016.88 1017.18 1017.15 1017.50 1017.82 1018.11 1017.65 1017.20 1017.13 1016.96 1016.66 1015.45 1015.15 1014.80 1014.24 1013.71 1013.27 1012.93 1012.52 1012.23 1011.88
1013.84 1014.12 1014.15 1014.13 1014.11 1013.93 1014.11 1014.40 1014.77 1014.77 1014.62 1014.33 1014.48 1014.69 1014.83 1014.78 1014.83 1015.13 1015.58 1016.04 1016.44 1016.74 1016.97 1017.47 1017.37 1017.48 1017.67 1017.85 1017.92 1017.60 1017.23 1016.84 1016.54 1016.26 1015.06 1014.86 1014.49 1013.71 1013.06 1012.70 1012.41 1012.01 1011.88
1013.83 1014.07 1014.17 1014.23 1014.03 1013.65 1013.55 1013.45 1013.65 1013.66 1013.68 1013.77 1013.95 1014.33 1014.58 1015.04 1015.40 1015.58 1015.61 1016.06 1016.31 1016.52 1016.92 1017.32 1017.25 1017.58 1017.62 1017.78 1017.62 1017.43 1017.27 1017.06 1016.61 1016.16 1015.55 1015.04 1014.65 1014.17 1013.44 1012.85 1012.56 1012.23 1011.83
Thickness
5709 5713 5712 5709 5710 5714 5712 5710 5712 5713 5713 5712 5710 5705 5699 5699 5700 5701 5697 5698 5691 5683 5673 5671 5667 5670 5672 5671 5674 5673 5674 5680 5682 5680 5679 5676 5677 5680 5682 5689 5690 5691 5690
5707 5705 5707 5705 5706 5707 5701 5703 5704 5708 5710 5706 5704 5700 5697 5694 5694 5693 5692 5692 5694 5678 5667 5666 5665 5664 5665 5666 5669 5665 5666 5670 5673 5675 5677 5677 5677 5681 5686 5690 5689 5689 5686
5707 5702 5704 5703 5700 5699 5699 5697 5702 5702 5700 5701 5696 5695 5693 5690 5690 5691 5688 5683 5682 5686 5680 5670 5668 5654 5654 5652 5655 5661 5660 5665 5667 5670 5673 5678 5681 5683 5685 5687 5689 5689 5686
5700 5699 5699 5697 5696 5696 5695 5698 5698 5694 5692 5691 5690 5687 5686 5685 5685 5683 5680 5676 5679 5679 5671 5666 5659 5648 5650 5636 5640 5649 5653 5653 5658 5665 5669 5672 5676 5680 5680 5683 5684 5683 5681
5697 5697 5696 5694 5691 5692 5691 5692 5691 5688 5686 5685 5682 5682 5679 5679 5678 5674 5672 5670 5672 5670 5663 5659 5654 5661 5668 5645 5643 5639 5642 5647 5652 5658 5664 5668 5673 5675 5676 5676 5676 5678 5678
5693 5694 5692 5690 5689 5687 5686 5685 5684 5681 5676 5675 5673 5673 5672 5674 5672 5668 5666 5668 5667 5662 5655 5657 5655 5657 5656 5650 5648 5639 5632 5637 5651 5655 5660 5667 5668 5671 5672 5669 5671 5673 5673
5691 5688 5686 5684 5683 5681 5680 5677 5677 5674 5671 5666 5665 5664 5664 5666 5665 5662 5658 5661 5659 5655 5652 5649 5650 5649 5648 5647 5646 5641 5641 5644 5649 5658 5662 5663 5664 5669 5668 5668 5668 5669 5669
5688 5685 5682 5680 5679 5676 5674 5673 5669 5667 5664 5659 5654 5653 5653 5653 5651 5650 5648 5650 5648 5646 5646 5646 5644 5645 5646 5646 5646 5638 5644 5648 5657 5655 5657 5664 5664 5668 5666 5666 5667 5666 5668
5689 5684 5679 5677 5676 5673 5670 5668 5665 5661 5657 5654 5650 5646 5645 5643 5643 5641 5639 5640 5638 5636 5639 5639 5640 5636 5638 5643 5642 5640 5639 5641 5645 5653 5653 5657 5663 5665 5664 5664 5663 5663 5663
5685 5679 5674 5672 5673 5670 5668 5664 5660 5655 5651 5648 5646 5642 5640 5639 5636 5633 5632 5632 5630 5626 5627 5632 5632 5634 5634 5634 5631 5632 5634 5635 5636 5642 5646 5655 5660 5662 5661 5658 5657 5658 5660
5682 5679 5673 5669 5669 5666 5665 5661 5657 5652 5648 5644 5642 5639 5636 5634 5632 5628 5625 5623 5621 5620 5619 5620 5620 5622 5623 5623 5623 5625 5626 5627 5629 5632 5636 5645 5649 5653 5653 5653 5652 5653 5655
5675 5673 5670 5666 5662 5661 5658 5656 5653 5648 5644 5643 5640 5637 5635 5632 5630 5625 5623 5620 5619 5618 5616 5616 5616 5613 5613 5614 5616 5619 5621 5620 5622 5623 5625 5633 5638 5645 5644 5646 5648 5648 5650
5672 5670 5666 5661 5658 5657 5656 5654 5649 5647 5643 5639 5637 5632 5630 5629 5627 5624 5620 5617 5613 5609 5605 5602 5602 5606 5604 5606 5605 5607 5610 5610 5611 5616 5617 5623 5629 5635 5638 5637 5639 5645 5643
5671 5668 5665 5662 5658 5656 5653 5651 5648 5644 5641 5636 5633 5629 5626 5621 5619 5617 5615 5612 5609 5608 5606 5603 5595 5590 5592 5595 5597 5597 5598 5601 5603 5606 5610 5613 5615 5619 5625 5625 5630 5636 5637
5671 5668 5663 5661 5656 5653 5649 5646 5643 5638 5635 5632 5629 5625 5622 5618 5614 5612 5609 5605 5603 5599 5597 5594 5592 5590 5586 5582 5581 5585 5587 5590 5595 5597 5598 5598 5602 5606 5609 5613 5619 5626 5628
5675 5667 5663 5659 5655 5651 5646 5641 5636 5632 5629 5627 5623 5618 5614 5610 5605 5603 5600 5598 5594 5590 5589 5587 5585 5583 5581 5581 5580 5577 5579 5581 5583 5583 5583 5587 5590 5592 5599 5603 5606 5614 5619
5673 5666 5660 5655 5649 5644 5640 5637 5632 5628 5625 5620 5617 5613 5608 5604 5599 5595 5592 5588 5584 5581 5577 5574 5573 5573 5572 5572 5572 5573 5574 5576 5576 5576 5575 5576 5579 5582 5589 5592 5596 5603 5610
5671 5664 5660 5655 5646 5640 5636 5631 5628 5624 5619 5615 5612 5607 5601 5596 5591 5586 5582 5579 5577 5574 5569 5564 5560 5559 5558 5559 5561 5563 5564 5564 5566 5569 5570 5571 5573 5574 5581 5583 5589 5594 5599
5670 5662 5655 5649 5641 5635 5630 5624 5620 5617 5613 5608 5604 5600 5595 5589 5585 5580 5575 5569 5565 5560 5558 5554 5550 5547 5545 5546 5548 5552 5553 5553 5555 5560 5563 5565 5566 5568 5573 5574 5579 5582 5588
5664 5657 5649 5642 5637 5630 5623 5618 5611 5607 5604 5599 5594 5591 5589 5581 5574 5569 5562 5559 5554 5548 5544 5542 5539 5533 5531 5531 5534 5536 5537 5541 5545 5547 5551 5557 5560 5560 5563 5567 5570 5575 5582
5655 5649 5641 5633 5627 5622 5614 5606 5600 5594 5592 5588 5584 5579 5574 5569 5562 5557 5551 5545 5541 5535 5529 5525 5520 5518 5515 5513 5513 5516 5521 5523 5526 5531 5538 5542 5548 5551 5554 5557 5565 5566 5570
5645 5640 5635 5628 5621 5615 5609 5603 5596 5590 5586 5582 5576 5571 5564 5558 5552 5547 5541 5533 5528 5522 5517 5508 5501 5495 5493 5496 5491 5490 5494 5505 5506 5512 5521 5527 5534 5538 5544 5548 5554 5558 5561
5640 5636 5630 5621 5615 5606 5601 5596 5589 5582 5577 5570 5563 5557 5551 5548 5542 5535 5527 5519 5512 5505 5499 5491 5485 5477 5469 5470 5472 5468 5473 5477 5482 5489 5498 5506 5513 5520 5528 5537 5542 5546 5547
5638 5634 5629 5621 5613 5604 5594 5585 5577 5571 5565 5561 5556 5549 5541 5537 5530 5522 5514 5505 5497 5489 5481 5472 5468 5461 5453 5447 5447 5450 5453 5455 5461 5474 5475 5483 5492 5502 5507 5516 5526 5531 5539
5634 5626 5620 5612 5606 5600 5590 5580 5570 5562 5557 5552 5543 5534 5525 5521 5514 5504 5494 5483 5475 5466 5458 5449 5445 5441 5436 5431 5429 5429 5432 5436 5439 5445 5460 5463 5469 5481 5492 5497 5507 5517 5523
5624 5615 5608 5599 5591 5587 5582 5575 5567 5561 5553 5541 5531 5521 5512 5500 5491 5482 5476 5465 5457 5448 5440 5431 5427 5421 5418 5414 5415 5415 5411 5413 5420 5423 5432 5442 5445 5455 5469 5479 5487 5496 5505